^^
Meteo Knjazevac Station Historical Data
Daily Summary for July 9, 2021 Units:  English    Metric   Both
Daily Weekly Monthly Yearly Custom
  High: Low: Average:
Temperature: 47.3 °F 46.2 °F 46.8 °F
Dew Point: 47 °F 46 °F 46.6 °F
Humidity: 99% 98% 99%
Wind Speed: 6mph 0mph 3mph
Wind Gust: 10mph - -
Wind- - SSW
Pressure: 30.26 in 30.22 in -
Precipitation: 0.00 in    
Historical Graphs
 
 
Tabular Data for July 9, 2021
Time Temperature Dew Point Pressure Wind Wind Speed Wind Gust Humidity Rainfall Rate (Hourly) solar Conditions
00:00 47.3 °F 46.8 °F 30.24 in SSW 3 mph 6 mph 98% 0.00 in 0 W/m2
00:10 47.3 °F 47 °F 30.24 in SW 3 mph 6 mph 99% 0.00 in 0 W/m2
00:20 47.3 °F 47 °F 30.25 in SSW 2 mph 5 mph 99% 0.00 in 0 W/m2
00:30 47.3 °F 47 °F 30.24 in SE 1 mph 4 mph 99% 0.00 in 0 W/m2
00:40 47.3 °F 47 °F 30.23 in Calm   3 mph 99% 0.00 in 0 W/m2
00:50 47.3 °F 47 °F 30.23 in Calm   4 mph 99% 0.00 in 0 W/m2
01:00 47.3 °F 47 °F 30.23 in East 1 mph 3 mph 99% 0.00 in 0 W/m2
01:10 47.1 °F 46.9 °F 30.22 in SSE 2 mph 4 mph 99% 0.00 in 0 W/m2
01:20 47.1 °F 46.9 °F 30.23 in SW 2 mph 3 mph 99% 0.00 in 0 W/m2
01:30 47.1 °F 46.9 °F 30.23 in SW 3 mph 4 mph 99% 0.00 in 0 W/m2
01:40 47.1 °F 46.9 °F 30.24 in WSW 5 mph 7 mph 99% 0.00 in 0 W/m2
01:50 47.1 °F 46.9 °F 30.25 in WSW 6 mph 8 mph 99% 0.00 in 0 W/m2
02:00 47.1 °F 46.9 °F 30.24 in SW 3 mph 7 mph 99% 0.00 in 0 W/m2
02:10 47.1 °F 46.9 °F 30.24 in SSW 5 mph 8 mph 99% 0.00 in 0 W/m2
02:20 47.1 °F 46.8 °F 30.24 in SSW 3 mph 6 mph 99% 0.00 in 0 W/m2
02:30 46.9 °F 46.7 °F 30.24 in SSW 2 mph 6 mph 99% 0.00 in 0 W/m2
02:40 46.9 °F 46.7 °F 30.24 in SSW 2 mph 5 mph 99% 0.00 in 0 W/m2
02:50 46.9 °F 46.7 °F 30.24 in SW 2 mph 6 mph 99% 0.00 in 0 W/m2
03:00 46.9 °F 46.7 °F 30.24 in SW 2 mph 6 mph 99% 0.00 in 0 W/m2
03:10 46.9 °F 46.7 °F 30.24 in WSW 3 mph 6 mph 99% 0.00 in 0 W/m2
03:20 46.9 °F 46.7 °F 30.23 in WSW 3 mph 7 mph 99% 0.00 in 0 W/m2
03:30 46.8 °F 46.5 °F 30.24 in WSW 6 mph 10 mph 99% 0.00 in 0 W/m2
03:40 46.8 °F 46.5 °F 30.25 in SW 6 mph 8 mph 99% 0.00 in 0 W/m2
03:50 46.6 °F 46.3 °F 30.25 in SW 6 mph 8 mph 99% 0.00 in 0 W/m2
04:00 46.6 °F 46.3 °F 30.25 in SW 5 mph 9 mph 99% 0.00 in 0 W/m2
04:10 46.4 °F 46.1 °F 30.25 in SW 5 mph 8 mph 99% 0.00 in 0 W/m2
04:20 46.4 °F 46.1 °F 30.25 in SW 6 mph 8 mph 99% 0.00 in 0 W/m2
04:30 46.2 °F 46 °F 30.25 in SSW 2 mph 8 mph 99% 0.00 in 0 W/m2
04:40 46.2 °F 46 °F 30.25 in SSW 3 mph 7 mph 99% 0.00 in 0 W/m2
04:50 46.2 °F 46 °F 30.25 in South 2 mph 6 mph 99% 0.00 in 0 W/m2
05:00 46.2 °F 46 °F 30.25 in SSW 2 mph 6 mph 99% 0.00 in 0 W/m2
05:10 46.2 °F 46 °F 30.25 in South 2 mph 7 mph 99% 0.00 in 0 W/m2
05:20 46.2 °F 46 °F 30.26 in SSW 2 mph 5 mph 99% 0.00 in 0 W/m2
05:30 46.2 °F 46 °F 30.26 in SSW 2 mph 6 mph 99% 0.00 in 0 W/m2
05:40 46.2 °F 46 °F 30.26 in SSW 3 mph 7 mph 99% 0.00 in 0 W/m2
05:50 46.2 °F 46 °F 30.26 in SSW 2 mph 8 mph 99% 0.00 in 0 W/m2
Knjazevac, Serbia
Compliments of Weather Underground - 2 mb